Location: Newark
(12.4436°N, 0.6167°W)
Time: 14:46:22
(UTC+00:00)

deb Explorer IX - Pass Details

Date: 11 December 2019
Orbit: 548 x 1101 km, 38.8° (Epoch: 27 January)

Event Time Altitude Azimuth Distance (km) Brightness Sun altitude
Rises 14:05:10 0° 250° (WSW) 2,876 ? 42.4°
Reaches altitude 10° 14:07:29 10° 258° (WSW) 2,037 ? 42.1°
Maximum altitude 14:11:52 37° 326° (NW) 1,096 ? 41.3°
Drops below altitude 10° 14:16:55 10° 33° (NNE) 2,359 ? 40.5°
Sets 14:19:48 0° 41° (NE) 3,396 ? 40.0°
